Time,TemperatureF,DewpointF,PressureIn,WindDirection,WindDirectionDegrees,WindSpeedMPH,WindSpeedGustMPH,Humidity,HourlyPrecipIn,Conditions,Clouds,dailyrainin,SoftwareType,DateUTC
2013-08-17 00:05:00,71.3,60.0,29.67,WSW,247,0.0,1.0,68,0.00,,,0.00,weatherlink.com 1.10,2013-08-17 07:05:00,
2013-08-17 00:20:00,70.8,60.0,29.67,WSW,247,1.0,1.0,68,0.00,,,0.00,weatherlink.com 1.10,2013-08-17 07:20:00,
2013-08-17 00:36:00,70.6,58.0,29.66,WSW,247,0.0,2.0,64,0.00,,,0.00,weatherlink.com 1.10,2013-08-17 07:36:00,
2013-08-17 00:51:00,70.6,58.0,29.67,WSW,247,0.0,2.0,64,0.00,,,0.00,weatherlink.com 1.10,2013-08-17 07:51:00,
2013-08-17 01:21:00,69.2,58.0,29.68,SSE,159,1.0,2.0,68,0.00,,,0.00,weatherlink.com 1.10,2013-08-17 08:21:00,
2013-08-17 01:36:00,70.5,57.0,29.67,NNE,15,0.0,4.0,63,0.00,,,0.00,weatherlink.com 1.10,2013-08-17 08:36:00,
2013-08-17 01:51:00,70.6,58.0,29.67,NNE,15,0.0,1.0,64,0.00,,,0.00,weatherlink.com 1.10,2013-08-17 08:51:00,
2013-08-17 02:06:00,69.8,58.0,29.67,NNE,15,0.0,2.0,67,0.00,,,0.00,weatherlink.com 1.10,2013-08-17 09:06:00,
2013-08-17 02:21:00,69.3,56.0,29.67,WSW,257,0.0,2.0,63,0.00,,,0.00,weatherlink.com 1.10,2013-08-17 09:21:00,
2013-08-17 02:36:00,69.1,58.0,29.67,SSW,200,0.0,2.0,67,0.00,,,0.00,weatherlink.com 1.10,2013-08-17 09:36:00,
2013-08-17 02:51:00,68.2,58.0,29.67,SW,221,0.0,2.0,69,0.00,,,0.00,weatherlink.com 1.10,2013-08-17 09:51:00,
2013-08-17 03:06:00,67.4,58.0,29.67,East,92,3.0,3.0,71,0.00,,,0.00,weatherlink.com 1.10,2013-08-17 10:06:00,
2013-08-17 03:21:00,66.8,57.0,29.67,East,80,0.0,0.0,72,0.00,,,0.00,weatherlink.com 1.10,2013-08-17 10:21:00,
2013-08-17 03:36:00,66.0,58.0,29.67,East,80,0.0,1.0,74,0.00,,,0.00,weatherlink.com 1.10,2013-08-17 10:36:00,
2013-08-17 03:51:00,65.6,58.0,29.67,East,80,0.0,1.0,77,0.00,,,0.00,weatherlink.com 1.10,2013-08-17 10:51:00,
2013-08-17 04:06:00,65.3,58.0,29.68,East,80,1.0,1.0,78,0.00,,,0.00,weatherlink.com 1.10,2013-08-17 11:06:00,
2013-08-17 04:21:00,64.7,58.0,29.68,East,80,0.0,0.0,79,0.00,,,0.00,weatherlink.com 1.10,2013-08-17 11:21:00,
2013-08-17 04:36:00,64.2,58.0,29.68,East,80,0.0,0.0,80,0.00,,,0.00,weatherlink.com 1.10,2013-08-17 11:36:00,
2013-08-17 04:51:00,63.8,58.0,29.68,East,80,0.0,1.0,81,0.00,,,0.00,weatherlink.com 1.10,2013-08-17 11:51:00,
2013-08-17 05:06:00,63.4,58.0,29.69,East,80,0.0,1.0,82,0.00,,,0.00,weatherlink.com 1.10,2013-08-17 12:06:00,
2013-08-17 05:21:00,63.1,58.0,29.69,East,80,0.0,1.0,83,0.00,,,0.00,weatherlink.com 1.10,2013-08-17 12:21:00,
2013-08-17 05:36:00,63.0,58.0,29.70,East,80,0.0,0.0,84,0.00,,,0.00,weatherlink.com 1.10,2013-08-17 12:36:00,
2013-08-17 05:51:00,62.9,58.0,29.70,East,80,0.0,0.0,85,0.00,,,0.00,weatherlink.com 1.10,2013-08-17 12:51:00,
2013-08-17 06:06:00,63.2,59.0,29.71,East,80,0.0,0.0,85,0.00,,,0.00,weatherlink.com 1.10,2013-08-17 13:06:00,
2013-08-17 06:21:00,64.5,60.0,29.71,East,80,0.0,1.0,84,0.00,,,0.00,weatherlink.com 1.10,2013-08-17 13:21:00,
2013-08-17 06:36:00,65.5,60.0,29.71,East,80,0.0,0.0,82,0.00,,,0.00,weatherlink.com 1.10,2013-08-17 13:36:00,
2013-08-17 06:51:00,66.8,61.0,29.71,East,80,0.0,0.0,81,0.00,,,0.00,weatherlink.com 1.10,2013-08-17 13:51:00,
2013-08-17 07:06:00,68.2,63.0,29.71,East,80,0.0,0.0,82,0.00,,,0.00,weatherlink.com 1.10,2013-08-17 14:06:00,
2013-08-17 07:21:00,69.6,63.0,29.71,East,80,0.0,2.0,79,0.00,,,0.00,weatherlink.com 1.10,2013-08-17 14:21:00,
2013-08-17 07:36:00,72.7,64.0,29.72,East,80,0.0,0.0,74,0.00,,,0.00,weatherlink.com 1.10,2013-08-17 14:36:00,
2013-08-17 07:51:00,76.0,65.0,29.72,East,80,0.0,1.0,69,0.00,,,0.00,weatherlink.com 1.10,2013-08-17 14:51:00,
2013-08-17 08:06:00,79.8,65.0,29.72,East,80,0.0,1.0,61,0.00,,,0.00,weatherlink.com 1.10,2013-08-17 15:06:00,
2013-08-17 08:22:00,82.0,62.0,29.71,NE,50,1.0,2.0,50,0.00,,,0.00,weatherlink.com 1.10,2013-08-17 15:22:00,
2013-08-17 08:37:00,84.7,61.0,29.71,NE,51,0.0,2.0,45,0.00,,,0.00,weatherlink.com 1.10,2013-08-17 15:37:00,
2013-08-17 08:52:00,87.9,63.0,29.71,ESE,117,1.0,2.0,43,0.00,,,0.00,weatherlink.com 1.10,2013-08-17 15:52:00,
2013-08-17 09:07:00,90.3,61.0,29.71,ESE,117,1.0,2.0,37,0.00,,,0.00,weatherlink.com 1.10,2013-08-17 16:07:00,
2013-08-17 09:22:00,91.6,60.0,29.71,SSW,213,2.0,4.0,35,0.00,,,0.00,weatherlink.com 1.10,2013-08-17 16:22:00,
2013-08-17 09:37:00,93.2,62.0,29.71,SSW,202,2.0,5.0,35,0.00,,,0.00,weatherlink.com 1.10,2013-08-17 16:37:00,
2013-08-17 09:52:00,93.6,64.0,29.71,SW,219,2.0,5.0,38,0.00,,,0.00,weatherlink.com 1.10,2013-08-17 16:52:00,
2013-08-17 10:07:00,92.3,62.0,29.71,ESE,119,3.0,4.0,37,0.00,,,0.00,weatherlink.com 1.10,2013-08-17 17:07:00,
2013-08-17 10:22:00,91.7,63.0,29.70,SSW,207,0.0,3.0,38,0.00,,,0.00,weatherlink.com 1.10,2013-08-17 17:22:00,
2013-08-17 10:37:00,92.9,61.0,29.69,SSW,197,1.0,5.0,35,0.00,,,0.00,weatherlink.com 1.10,2013-08-17 17:37:00,
2013-08-17 10:52:00,94.4,61.0,29.68,SSW,193,1.0,3.0,33,0.00,,,0.00,weatherlink.com 1.10,2013-08-17 17:52:00,
2013-08-17 11:07:00,95.4,62.0,29.67,South,188,1.0,4.0,33,0.00,,,0.00,weatherlink.com 1.10,2013-08-17 18:07:00,
2013-08-17 11:22:00,96.8,63.0,29.66,SE,131,2.0,5.0,33,0.00,,,0.00,weatherlink.com 1.10,2013-08-17 18:22:00,
2013-08-17 11:37:00,97.9,60.0,29.65,SE,145,1.0,3.0,28,0.00,,,0.00,weatherlink.com 1.10,2013-08-17 18:37:00,
2013-08-17 11:52:00,98.4,60.0,29.64,North,355,3.0,4.0,28,0.00,,,0.00,weatherlink.com 1.10,2013-08-17 18:52:00,
2013-08-17 12:07:00,97.9,59.0,29.63,NNW,340,1.0,5.0,27,0.00,,,0.00,weatherlink.com 1.10,2013-08-17 19:07:00,
2013-08-17 12:22:00,96.2,57.0,29.63,NW,311,3.0,8.0,27,0.00,,,0.00,weatherlink.com 1.10,2013-08-17 19:22:00,
2013-08-17 12:37:00,93.3,57.0,29.62,NW,315,1.0,7.0,29,0.00,,,0.00,weatherlink.com 1.10,2013-08-17 19:37:00,
2013-08-17 12:52:00,91.3,58.0,29.61,NNE,12,2.0,6.0,32,0.00,,,0.00,weatherlink.com 1.10,2013-08-17 19:52:00,
2013-08-17 13:07:00,90.2,60.0,29.61,NNW,343,2.0,7.0,36,0.00,,,0.00,weatherlink.com 1.10,2013-08-17 20:07:00,
2013-08-17 13:22:00,90.1,62.0,29.60,NW,324,2.0,5.0,39,0.00,,,0.00,weatherlink.com 1.10,2013-08-17 20:22:00,
2013-08-17 13:37:00,90.8,63.0,29.59,NNW,343,1.0,3.0,40,0.00,,,0.00,weatherlink.com 1.10,2013-08-17 20:37:00,
2013-08-17 13:52:00,92.9,64.0,29.59,NNW,327,2.0,8.0,38,0.00,,,0.00,weatherlink.com 1.10,2013-08-17 20:52:00,
2013-08-17 14:07:00,94.2,60.0,29.59,North,351,3.0,8.0,32,0.00,,,0.00,weatherlink.com 1.10,2013-08-17 21:07:00,
2013-08-17 14:22:00,93.9,62.0,29.58,NNW,346,0.0,5.0,35,0.00,,,0.00,weatherlink.com 1.10,2013-08-17 21:22:00,
2013-08-17 14:37:00,94.1,66.0,29.58,NNW,346,0.0,1.0,39,0.00,,,0.00,weatherlink.com 1.10,2013-08-17 21:37:00,
2013-08-17 14:53:00,93.7,66.0,29.58,SE,136,2.0,3.0,40,0.00,,,0.00,weatherlink.com 1.10,2013-08-17 21:53:00,
2013-08-17 15:08:00,90.3,59.0,29.60,ESE,117,4.0,15.0,35,0.00,,,0.00,weatherlink.com 1.10,2013-08-17 22:08:00,
2013-08-17 15:23:00,87.1,60.0,29.63,ESE,119,7.0,9.0,40,0.00,,,0.00,weatherlink.com 1.10,2013-08-17 22:23:00,
2013-08-17 15:38:00,83.9,63.0,29.63,ESE,115,2.0,8.0,49,0.00,,,0.00,weatherlink.com 1.10,2013-08-17 22:38:00,
2013-08-17 15:53:00,82.4,62.0,29.64,ENE,59,1.0,6.0,51,0.01,,,0.01,weatherlink.com 1.10,2013-08-17 22:53:00,
2013-08-17 16:08:00,83.0,66.0,29.65,WSW,255,4.0,5.0,56,0.01,,,0.01,weatherlink.com 1.10,2013-08-17 23:08:00,
2013-08-17 16:23:00,84.1,63.0,29.66,West,277,3.0,7.0,49,0.01,,,0.01,weatherlink.com 1.10,2013-08-17 23:23:00,
2013-08-17 16:38:00,84.2,59.0,29.65,NNW,333,3.0,5.0,42,0.00,,,0.01,weatherlink.com 1.10,2013-08-17 23:38:00,
2013-08-17 16:53:00,83.1,61.0,29.65,NW,306,5.0,12.0,47,0.00,,,0.01,weatherlink.com 1.10,2013-08-17 23:53:00,
2013-08-17 17:08:00,81.4,60.0,29.65,West,278,6.0,8.0,48,0.00,,,0.01,weatherlink.com 1.10,2013-08-18 00:08:00,
2013-08-17 17:23:00,80.4,61.0,29.66,West,269,1.0,7.0,52,0.00,,,0.01,weatherlink.com 1.10,2013-08-18 00:23:00,
2013-08-17 17:38:00,79.2,59.0,29.67,WNW,300,6.0,8.0,50,0.00,,,0.01,weatherlink.com 1.10,2013-08-18 00:38:00,
2013-08-17 17:53:00,80.0,62.0,29.68,West,271,1.0,7.0,54,0.00,,,0.01,weatherlink.com 1.10,2013-08-18 00:53:00,
2013-08-17 18:08:00,78.1,62.0,29.67,NNW,329,1.0,4.0,58,0.01,,,0.02,weatherlink.com 1.10,2013-08-18 01:08:00,
2013-08-17 18:23:00,76.7,61.0,29.69,NNW,335,3.0,9.0,58,0.01,,,0.02,weatherlink.com 1.10,2013-08-18 01:23:00,
2013-08-17 18:38:00,77.8,60.0,29.70,WNW,282,3.0,14.0,54,0.01,,,0.02,weatherlink.com 1.10,2013-08-18 01:38:00,
2013-08-17 18:53:00,77.3,59.0,29.72,WNW,302,6.0,11.0,54,0.00,,,0.02,weatherlink.com 1.10,2013-08-18 01:53:00,
2013-08-17 19:08:00,75.8,61.0,29.74,NNE,13,3.0,10.0,61,0.01,,,0.03,weatherlink.com 1.10,2013-08-18 02:08:00,
2013-08-17 19:23:00,75.1,60.0,29.76,WNW,293,2.0,14.0,60,0.01,,,0.03,weatherlink.com 1.10,2013-08-18 02:23:00,
2013-08-17 19:38:00,74.2,60.0,29.78,NNW,334,3.0,5.0,61,0.01,,,0.03,weatherlink.com 1.10,2013-08-18 02:38:00,
2013-08-17 19:53:00,73.6,62.0,29.80,East,94,1.0,4.0,68,0.02,,,0.04,weatherlink.com 1.10,2013-08-18 02:53:00,
2013-08-17 20:08:00,71.1,62.0,29.79,WSW,248,6.0,12.0,73,0.02,,,0.05,weatherlink.com 1.10,2013-08-18 03:08:00,
2013-08-17 20:23:00,70.9,62.0,29.79,NW,307,4.0,9.0,74,0.02,,,0.05,weatherlink.com 1.10,2013-08-18 03:23:00,
2013-08-17 20:38:00,70.5,63.0,29.79,WNW,301,4.0,6.0,77,0.02,,,0.05,weatherlink.com 1.10,2013-08-18 03:38:00,
2013-08-17 20:53:00,70.0,64.0,29.80,WNW,302,2.0,4.0,80,0.01,,,0.05,weatherlink.com 1.10,2013-08-18 03:53:00,
2013-08-17 21:08:00,69.5,63.0,29.80,North,360,0.0,4.0,81,0.01,,,0.06,weatherlink.com 1.10,2013-08-18 04:08:00,
2013-08-17 21:23:00,69.6,63.0,29.79,North,10,2.0,5.0,79,0.01,,,0.06,weatherlink.com 1.10,2013-08-18 04:23:00,
2013-08-17 21:38:00,70.0,63.0,29.78,WNW,302,1.0,5.0,78,0.01,,,0.06,weatherlink.com 1.10,2013-08-18 04:38:00,
2013-08-17 21:53:00,69.6,63.0,29.76,WNW,302,0.0,1.0,80,0.01,,,0.06,weatherlink.com 1.10,2013-08-18 04:53:00,
2013-08-17 22:08:00,69.0,63.0,29.75,WNW,302,0.0,2.0,82,0.00,,,0.06,weatherlink.com 1.10,2013-08-18 05:08:00,
2013-08-17 22:23:00,68.5,63.0,29.73,WNW,302,2.0,2.0,82,0.00,,,0.06,weatherlink.com 1.10,2013-08-18 05:23:00,
2013-08-17 22:38:00,68.7,63.0,29.75,NW,325,1.0,4.0,83,0.00,,,0.06,weatherlink.com 1.10,2013-08-18 05:38:00,
2013-08-17 22:53:00,68.4,63.0,29.74,SE,139,2.0,3.0,83,0.00,,,0.06,weatherlink.com 1.10,2013-08-18 05:53:00,
2013-08-17 23:08:00,68.2,64.0,29.74,SSW,196,0.0,1.0,85,0.00,,,0.06,weatherlink.com 1.10,2013-08-18 06:08:00,
2013-08-17 23:23:00,67.8,64.0,29.72,SSW,195,0.0,1.0,86,0.00,,,0.06,weatherlink.com 1.10,2013-08-18 06:23:00,
2013-08-17 23:38:00,67.3,63.0,29.71,South,173,0.0,2.0,87,0.00,,,0.06,weatherlink.com 1.10,2013-08-18 06:38:00,
2013-08-17 23:53:00,66.9,63.0,29.71,ENE,75,2.0,3.0,87,0.00,,,0.06,weatherlink.com 1.10,2013-08-18 06:53:00,